When you browse on this site, cookies collect data to enhance your experience and personalize the content and advertising you see.
Visit our Privacy Policy to learn more. By continuing to use the site, you agree to this use of cookies and data.
  • In Deutschland
  • Länderverzeichnis
  • Für 7 Tage
  • Wassertemperatur
  • Wetterkarte
  • Widgets
  • user-avatar
    Anmelden

    Stündliche Wetter Truto

    Heute, 19 November, Dienstag

    Zeit Temperatur Niederschläge Wind Luftdruck Luftfeuchtigkeit
    00:00 +5°C° 0 mm 4 m/S 759 mmHg 86%
    01:00 +6°C° 0 mm 5 m/S 759 mmHg 87%
    02:00 +6°C° 0 mm 5 m/S 758 mmHg 87%
    03:00 +5°C° 0 mm 6 m/S 757 mmHg 88%
    04:00 +7°C° 0 mm 6 m/S 757 mmHg 87%
    05:00 +6°C° 0 mm 7 m/S 757 mmHg 85%
    06:00 +8°C° 0 mm 7 m/S 757 mmHg 85%
    07:00 +8°C° 0 mm 7 m/S 756 mmHg 84%
    08:00 +7°C° 0 mm 8 m/S 756 mmHg 83%
    09:00 +9°C° 0 mm 8 m/S 756 mmHg 82%
    10:00 +9°C° 0 mm 8 m/S 756 mmHg 81%
    11:00 +10°C° 0 mm 8 m/S 756 mmHg 79%
    12:00 +10°C° 0 mm 9 m/S 756 mmHg 78%
    13:00 +10°C° 0.1 mm 9 m/S 755 mmHg 79%
    14:00 +10°C° 0.1 mm 9 m/S 755 mmHg 80%
    15:00 +10°C° 0.1 mm 9 m/S 754 mmHg 82%
    16:00 +10°C° 0.1 mm 9 m/S 754 mmHg 82%
    17:00 +9°C° 0.1 mm 10 m/S 754 mmHg 82%
    18:00 +8°C° 0.1 mm 10 m/S 754 mmHg 83%
    19:00 +8°C° 0.1 mm 10 m/S 754 mmHg 83%
    20:00 +8°C° 0.1 mm 10 m/S 754 mmHg 84%
    21:00 +8°C° 0.1 mm 11 m/S 753 mmHg 84%
    22:00 +8°C° 0.2 mm 11 m/S 753 mmHg 82%
    23:00 +8°C° 0.2 mm 11 m/S 753 mmHg 81%

    Morgen, 20 November, Mittwoch

    Zeit Temperatur Niederschläge Wind Luftdruck Luftfeuchtigkeit
    00:00 +8°C° 0.2 mm 11 m/S 753 mmHg 79%
    01:00 +8°C° 0.1 mm 12 m/S 752 mmHg 79%
    02:00 +8°C° 0.1 mm 12 m/S 752 mmHg 79%
    03:00 +8°C° 0.1 mm 13 m/S 751 mmHg 80%
    04:00 +8°C° 0.2 mm 12 m/S 751 mmHg 80%
    05:00 +8°C° 0.2 mm 11 m/S 751 mmHg 80%
    06:00 +8°C° 0.2 mm 11 m/S 751 mmHg 80%
    07:00 +8°C° 0.1 mm 11 m/S 751 mmHg 82%
    08:00 +8°C° 0.1 mm 11 m/S 750 mmHg 85%
    09:00 +8°C° 0.1 mm 11 m/S 750 mmHg 87%
    10:00 +8°C° 0.2 mm 11 m/S 750 mmHg 86%
    11:00 +8°C° 0.2 mm 11 m/S 750 mmHg 85%
    12:00 +8°C° 0.2 mm 11 m/S 750 mmHg 84%
    13:00 +8°C° 0.1 mm 11 m/S 749 mmHg 84%
    14:00 +7°C° 0.1 mm 11 m/S 749 mmHg 85%
    15:00 +7°C° 0.1 mm 11 m/S 748 mmHg 85%
    16:00 +7°C° 0.1 mm 11 m/S 748 mmHg 85%
    17:00 +7°C° 0.1 mm 11 m/S 748 mmHg 86%
    18:00 +7°C° 0.1 mm 11 m/S 747 mmHg 86%
    19:00 +7°C° 0.4 mm 11 m/S 747 mmHg 86%
    20:00 +8°C° 0.4 mm 11 m/S 747 mmHg 87%
    21:00 +8°C° 0.4 mm 11 m/S 747 mmHg 87%
    22:00 +8°C° 1.3 mm 9 m/S 746 mmHg 87%
    23:00 +9°C° 1.3 mm 8 m/S 746 mmHg 88%

    übermorgen, 21 November, Donnerstag

    Zeit Temperatur Niederschläge Wind Luftdruck Luftfeuchtigkeit
    00:00 +8°C° 1.3 mm 6 m/S 746 mmHg 88%
    01:00 +8°C° 1.3 mm 6 m/S 746 mmHg 89%
    02:00 +8°C° 1.3 mm 6 m/S 745 mmHg 91%
    03:00 +8°C° 1.3 mm 5 m/S 745 mmHg 92%
    04:00 +8°C° 0.2 mm 6 m/S 745 mmHg 90%
    05:00 +8°C° 0.2 mm 6 m/S 744 mmHg 87%
    06:00 +8°C° 0.2 mm 7 m/S 744 mmHg 85%
    07:00 +9°C° 0.6 mm 7 m/S 744 mmHg 85%
    08:00 +9°C° 0.6 mm 7 m/S 744 mmHg 86%
    09:00 +9°C° 0.6 mm 8 m/S 744 mmHg 86%
    10:00 +9°C° 0.4 mm 7 m/S 743 mmHg 83%
    11:00 +9°C° 0.4 mm 7 m/S 743 mmHg 81%
    12:00 +9°C° 0.4 mm 7 m/S 743 mmHg 78%
    13:00 +9°C° 0.2 mm 7 m/S 743 mmHg 78%
    14:00 +9°C° 0.2 mm 7 m/S 742 mmHg 78%
    15:00 +9°C° 0.2 mm 6 m/S 742 mmHg 77%
    16:00 +8°C° 0.1 mm 6 m/S 742 mmHg 79%
    17:00 +7°C° 0.1 mm 6 m/S 742 mmHg 80%
    18:00 +7°C° 0.1 mm 6 m/S 742 mmHg 81%
    19:00 +7°C° 0.4 mm 6 m/S 742 mmHg 82%
    20:00 +7°C° 0.4 mm 6 m/S 742 mmHg 82%
    21:00 +7°C° 0.4 mm 6 m/S 742 mmHg 83%
    22:00 +6°C° 0.2 mm 7 m/S 742 mmHg 82%
    23:00 +6°C° 0.2 mm 7 m/S 742 mmHg 81%

    22 November, Freitag

    Zeit Temperatur Niederschläge Wind Luftdruck Luftfeuchtigkeit
    00:00 +6°C° 0.2 mm 8 m/S 742 mmHg 81%
    01:00 +6°C° 0.3 mm 7 m/S 742 mmHg 81%
    02:00 +6°C° 0.3 mm 7 m/S 742 mmHg 82%
    03:00 +6°C° 0.3 mm 7 m/S 742 mmHg 82%
    04:00 +7°C° 0.3 mm 6 m/S 742 mmHg 82%
    05:00 +7°C° 0.3 mm 6 m/S 742 mmHg 82%
    06:00 +7°C° 0.3 mm 6 m/S 742 mmHg 82%
    07:00 +7°C° 0.5 mm 5 m/S 742 mmHg 85%
    08:00 +7°C° 0.5 mm 5 m/S 742 mmHg 87%
    09:00 +7°C° 0.5 mm 5 m/S 742 mmHg 89%
    10:00 +7°C° 1.6 mm 5 m/S 741 mmHg 90%
    11:00 +8°C° 1.6 mm 5 m/S 741 mmHg 91%
    12:00 +8°C° 1.6 mm 6 m/S 741 mmHg 91%
    13:00 +8°C° 1.2 mm 6 m/S 741 mmHg 91%
    14:00 +8°C° 1.2 mm 6 m/S 740 mmHg 91%
    15:00 +8°C° 1.2 mm 7 m/S 740 mmHg 91%
    16:00 +8°C° 1.2 mm 6 m/S 740 mmHg 92%
    17:00 +8°C° 1.2 mm 6 m/S 740 mmHg 93%
    18:00 +8°C° 1.2 mm 5 m/S 740 mmHg 94%
    19:00 +8°C° 1.1 mm 6 m/S 740 mmHg 93%
    20:00 +8°C° 1.1 mm 7 m/S 740 mmHg 92%
    21:00 +7°C° 1.1 mm 8 m/S 739 mmHg 91%
    22:00 +8°C° 0.4 mm 7 m/S 739 mmHg 91%
    23:00 +8°C° 0.4 mm 7 m/S 740 mmHg 91%

    23 November, Samstag

    Zeit Temperatur Niederschläge Wind Luftdruck Luftfeuchtigkeit
    00:00 +8°C° 0.4 mm 6 m/S 740 mmHg 91%
    01:00 +8°C° 0.4 mm 7 m/S 740 mmHg 91%
    02:00 +8°C° 0.4 mm 7 m/S 740 mmHg 92%
    03:00 +7°C° 0.4 mm 8 m/S 740 mmHg 92%
    04:00 +7°C° 0.4 mm 8 m/S 740 mmHg 92%
    05:00 +7°C° 0.4 mm 8 m/S 740 mmHg 91%
    06:00 +7°C° 0.4 mm 8 m/S 741 mmHg 91%
    07:00 +7°C° 0.3 mm 8 m/S 741 mmHg 91%
    08:00 +7°C° 0.3 mm 8 m/S 741 mmHg 91%
    09:00 +8°C° 0.3 mm 9 m/S 742 mmHg 91%
    10:00 +8°C° 0.6 mm 9 m/S 742 mmHg 90%
    11:00 +8°C° 0.6 mm 9 m/S 743 mmHg 90%
    12:00 +8°C° 0.6 mm 9 m/S 743 mmHg 89%
    13:00 +8°C° 0.5 mm 10 m/S 744 mmHg 88%
    14:00 +8°C° 0.5 mm 10 m/S 744 mmHg 87%
    15:00 +8°C° 0.5 mm 10 m/S 745 mmHg 87%
    16:00 +8°C° 0.2 mm 10 m/S 746 mmHg 87%
    17:00 +8°C° 0.2 mm 9 m/S 746 mmHg 87%
    18:00 +8°C° 0.2 mm 9 m/S 747 mmHg 87%
    19:00 +8°C° 0.1 mm 9 m/S 748 mmHg 87%
    20:00 +9°C° 0.1 mm 8 m/S 749 mmHg 87%
    21:00 +9°C° 0.1 mm 8 m/S 750 mmHg 88%
    22:00 +8°C° 0 mm 7 m/S 750 mmHg 88%
    23:00 +8°C° 0 mm 6 m/S 750 mmHg 89%

    24 November, Sonntag

    Zeit Temperatur Niederschläge Wind Luftdruck Luftfeuchtigkeit
    00:00 +8°C° 0 mm 5 m/S 751 mmHg 90%
    01:00 +7°C° 0 mm 5 m/S 751 mmHg 88%
    02:00 +7°C° 0 mm 4 m/S 751 mmHg 87%
    03:00 +6°C° 0 mm 4 m/S 751 mmHg 86%
    04:00 +7°C° 0 mm 4 m/S 752 mmHg 87%
    05:00 +7°C° 0 mm 4 m/S 752 mmHg 87%
    06:00 +7°C° 0 mm 4 m/S 752 mmHg 88%
    07:00 +8°C° 0 mm 5 m/S 752 mmHg 88%
    08:00 +8°C° 0 mm 6 m/S 752 mmHg 88%
    09:00 +9°C° 0 mm 7 m/S 751 mmHg 88%
    10:00 +9°C° 0.1 mm 8 m/S 751 mmHg 87%
    11:00 +8°C° 0.1 mm 10 m/S 750 mmHg 87%
    12:00 +9°C° 0.1 mm 11 m/S 750 mmHg 86%
    13:00 +9°C° 2.2 mm 11 m/S 749 mmHg 89%
    14:00 +10°C° 2.2 mm 12 m/S 748 mmHg 92%
    15:00 +10°C° 2.2 mm 12 m/S 747 mmHg 95%
    16:00 +11°C° 2.4 mm 11 m/S 746 mmHg 96%
    17:00 +12°C° 2.4 mm 11 m/S 745 mmHg 96%
    18:00 +12°C° 2.4 mm 10 m/S 745 mmHg 96%
    19:00 +12°C° 1.8 mm 9 m/S 745 mmHg 96%
    20:00 +12°C° 1.8 mm 9 m/S 745 mmHg 95%
    21:00 +12°C° 1.8 mm 8 m/S 745 mmHg 94%
    22:00 +11°C° 0.2 mm 8 m/S 745 mmHg 93%
    23:00 +11°C° 0.2 mm 8 m/S 745 mmHg 93%
    Mehr zeigen